Regional Weather Roundup
Issued by NWS Nashville, TN

Home | Current Version | Previous Version | Text Only | Print | Product List | Glossary On
Versions: 1 2 3 4 5 6 7 8 9 10 11 12 13 14 15 16 17 18 19 20 21 22 23 24 25 26 27 28 29 30 31 32 33 34 35 36 37 38 39 40 41 42 43 44 45 46 47 48 49 50
884
ASUS44 KOHX 300710
RWROHX
MIDDLE TENNESSEE HOURLY WEATHER ROUNDUP
NATIONAL WEATHER SERVICE NASHVILLE TN
200 AM CDT FRI SEP 30 2016

NOTE: "FAIR" INDICATES FEW OR NO CLOUDS BELOW 12,000 FEET WITH
NO SIGNIFICANT WEATHER AND/OR OBSTRUCTIONS TO VISIBILITY.

* THESE REPORTS ARE NOT UNDER NWS QUALITY CONTROL AND MAY NOT
  REPORT WEATHER SUCH AS PRECIPITATION AND FOG.


TNZ005>011-023>034-057-059-062>066-078-080-300800
...NORTHERN MIDDLE TENNESSEE...

CITY           SKY/WX    TMP DP  RH WIND       PRES   REMARKS
CLARKSVILLE    CLOUDY    53  52  96 W3        30.07S
CROSSVILLE     FOG       46  46 100 W5        30.07R VSB 1/4
GALLATIN       CLOUDY    50  48  93 CALM      30.09F FOG
DICKSON        PTCLDY    51  50  97 W3        30.07F
LEBANON        PTCLDY    48  47  97 CALM      30.05F
NASHVILLE      PTCLDY    50  48  93 S3        30.07F
WEST NASHVILLE CLOUDY    48  48 100 CALM      30.07S VSB 1/2
PORTLAND       CLOUDY    50  50 100 CALM      30.06F
SMYRNA         CLEAR     48  47  96 S3        30.08S FOG
SPARTA         MOCLDY    46  46 100 CALM      30.05F
$$
TNZ056-058-060-061-075>077-079-093>097-300800
...SOUTHERN MIDDLE TENNESSEE...

CITY           SKY/WX    TMP DP  RH WIND       PRES   REMARKS
COLUMBIA       CLEAR    N/A N/A N/A CALM      30.06F
FAYETTEVILLE   CLOUDY    52  50  93 NW3       30.07S
LEWISBURG        N/A     44  44 100 CALM      30.07F VSB 1
MCMINNVILLE    MOCLDY    50  50 100 CALM      30.07S
SHELBYVILLE    CLEAR     46  46 100 CALM      30.09S
TULLAHOMA      CLEAR     46  46 100 CALM      30.08S
WINCHESTER     MOCLDY    48  48 100 CALM      30.08S VSB 3/4
$$


...KEY TO REMARKS...
VSB - VISIBILITY IN MILES
WCI - WIND CHILL INDEX
HX  - HEAT INDEX





USA.gov is the U.S. government's official web portal to all federal, state and local government web resources and services.